Other Surface Observations
Issued by NWS

Home | Current Version | Previous Version | Text Only | Print | Product List | Glossary On
Versions: 1 2 3 4 5 6 7 8 9 10 11 12 13 14 15 16 17 18 19 20 21 22 23 24 25 26 27 28 29 30 31 32 33 34 35 36 37 38 39 40 41 42 43 44 45 46 47 48 49 50
000
SXUS52 KTAE 051318
OSOTAE
OSOTAE
North Florida/South Alabama/Southwest Georgia Weather Roundup
National Weather Service Tallahassee Florida
900 AM EDT THU MAY 05 2016

Note: "fair" indicates few or no clouds below 12,000 feet with no
significant weather and/or obstructions to visibility.

!FLZ017-115-028-034-025-051400
...North Florida...

CITY           SKY/WX    TMP DP  RH WIND       PRES   REMARKS
TALLAHASSEE    SUNNY     66  52  60 N8        29.83R
APALACHICOLA   SUNNY     66  55  67 N9        29.84R
PERRY          SUNNY     63  52  67 NW8       29.83R
CROSS CITY       N/A     67  50  54 N8        29.81R
JACKSONVILLE   SUNNY     64  48  56 NW12G21   29.76R
$$

!FLZ112-006-005-002-011-051400
...Florida Panhandle...

CITY           SKY/WX    TMP DP  RH WIND       PRES   REMARKS
MARIANNA       SUNNY     62  55  77 N8        29.85R
BONIFAY        FAIR      63  54  72 N8        29.87R
PANAMA CITY NW FAIR      64  55  72 NW10      29.85R
TYNDALL AFB    SUNNY     66  54  64 N10       29.85R
TYND DRONE APT FAIR      66  56  71 N10       29.85R
DE FUNIAK SPR  FAIR      61  53  75 N9        29.88R
EGLIN AFB      SUNNY     65  53  65 N10       29.87R
DESTIN         SUNNY     68  56  65 N10       29.87R
HURLBURT       SUNNY     65  53  63 N12       29.86R
CRESTVIEW      SUNNY     63  52  67 N7        29.89R
PENSACOLA      SUNNY     66  54  65 N10       29.88R
$$

!ALZ063-066-051400
...South Alabama...

CITY           SKY/WX    TMP DP  RH WIND       PRES   REMARKS
DOTHAN         SUNNY     61  51  70 NW12      29.89R
OZARK CAIRNS   SUNNY     62  53  71 N8        29.87R
FT RUCKER HELI MOSUNNY   64  48  56 N10       29.87R
RUCKER HELI 3  FAIR      61  51  70 N9G16     29.89R
RUCKER HELI 2  NOT AVBL
FLORALA APT    SUNNY     60  52  74 N6        29.90
ANDALUSIA      SUNNY     65  49  56 N8        29.89R
TROY           SUNNY     60  50  69 NW8       29.88R
EUFALA         FAIR      62  49  62 NW7       29.84R
MOBILE         SUNNY     63  55  75 N9        29.91R
$$

!GAZ120>161-051400
...Southwest and South Central Georgia...

CITY           SKY/WX    TMP DP  RH WIND       PRES   REMARKS
THOMASVILLE    FAIR      61  52  72 NW9       29.83R
BAINBRIDGE     SUNNY     63  54  72 NW10      29.84R
MOODY AFB      SUNNY     63  49  61 NW10      29.79R
VALDOSTA       SUNNY     64  51  62 VRB5      29.81R
MOULTRIE       SUNNY     61  50  67 NW7       29.83R
BLAKELY        SUNNY     63  55  77 CALM      29.85R
ALBANY         SUNNY     61  49  64 NW13      29.84R
TIFTON         FAIR      61  49  65 NW13      29.80R
FITZGERALD     FAIR      62  49  63 NW13      29.81R
CORDELE        FAIR      62  51  67 NW10      29.80S
AMERICUS       FAIR      57  46  67 NW13      29.83R
HOMERVILLE     FAIR      63  50  63 NW10      29.79R
$$

!GMZ750-755-770-775-051400
...Coastal and Buoy Obs...

STATION/POSITION TIME  TEMP    WIND        PRES    VSBY  WAVE
                       AIR SEA DIR/SP/G                  HT/PER
                 (UTC) (F)     (DEG/KT/KT) (MB)    (MI)  (FT/S)
KEATON BEACH     1300   64     340/  6/  8 1009.6R
CEDAR KEY        1300   67     350/  7/ 12 1010.0R
C TOWER          1300   67      10/ 12/ 13 1010.7R
APALACHICOLA BUO 1250   75 73  320/ 17/ 21 1009.6R         5/ 6
PANAMA CITY BUOY 1250   76 78  310/ 21/ 25 1010.6R         5/ 6
MOBILE BUOY      1300   74 75  300/ 16/ 19 1012.1R
ORANGE BCH AL BU 1250   67 74  340/ 12/ 14 1011.1R         3/ 5
$$




USA.gov is the U.S. government's official web portal to all federal, state and local government web resources and services.